Time,TemperatureF,DewpointF,PressureIn,WindDirection,WindDirectionDegrees,WindSpeedMPH,WindSpeedGustMPH,Humidity,HourlyPrecipIn,Conditions,Clouds,dailyrainin,SoftwareType,DateUTC
2013-02-21 00:00:00,29.7,16.3,30.16,ESE,111,5.7,9.2,57,0.00,,,0.00,WeatherDisplay:10.37,2013-02-21 06:00:00,
2013-02-21 00:05:00,29.5,16.9,30.16,NE,56,5.3,6.9,59,0.00,,,0.00,WeatherDisplay:10.37,2013-02-21 06:05:00,
2013-02-21 00:10:00,29.2,17.4,30.15,East,96,5.1,8.1,61,0.00,,,0.00,WeatherDisplay:10.37,2013-02-21 06:10:00,
2013-02-21 00:15:00,28.9,17.1,30.15,East,96,7.0,10.4,61,0.00,,,0.00,WeatherDisplay:10.37,2013-02-21 06:15:00,
2013-02-21 00:20:00,28.7,17.7,30.16,East,86,6.5,11.5,63,0.00,,,0.00,WeatherDisplay:10.37,2013-02-21 06:20:00,
2013-02-21 00:25:00,28.6,18.7,30.16,East,80,4.9,10.4,66,0.00,,,0.00,WeatherDisplay:10.37,2013-02-21 06:25:00,
2013-02-21 00:30:00,28.5,18.6,30.16,SSE,155,5.3,6.9,66,0.00,,,0.00,WeatherDisplay:10.37,2013-02-21 06:30:00,
2013-02-21 00:35:00,28.5,18.6,30.17,ENE,58,5.0,7.0,66,0.00,,,0.00,WeatherDisplay:10.37,2013-02-21 06:35:00,
2013-02-21 00:40:00,28.3,18.4,30.17,ESE,117,5.7,9.2,66,0.00,,,0.00,WeatherDisplay:10.37,2013-02-21 06:40:00,
2013-02-21 00:45:00,28.2,18.3,30.17,East,87,8.3,11.5,66,0.00,,,0.00,WeatherDisplay:10.37,2013-02-21 06:45:00,
2013-02-21 00:50:00,28.2,19.0,30.16,East,88,5.9,10.0,68,0.00,,,0.00,WeatherDisplay:10.37,2013-02-21 06:50:00,
2013-02-21 00:55:00,28.1,19.2,30.16,ESE,103,5.9,12.0,69,0.00,,,0.00,WeatherDisplay:10.37,2013-02-21 06:55:00,
2013-02-21 01:00:00,27.9,19.7,30.16,SE,124,6.8,9.2,71,0.00,,,0.00,WeatherDisplay:10.37,2013-02-21 07:00:00,
2013-02-21 01:05:00,27.8,20.6,30.17,ESE,105,3.1,5.8,74,0.00,,,0.00,WeatherDisplay:10.37,2013-02-21 07:05:00,
2013-02-21 01:10:00,27.7,20.8,30.17,ENE,78,5.7,6.0,75,0.00,,,0.00,WeatherDisplay:10.37,2013-02-21 07:10:00,
2013-02-21 01:15:00,27.6,20.4,30.16,SE,124,6.0,9.2,74,0.00,,,0.00,WeatherDisplay:10.37,2013-02-21 07:15:00,
2013-02-21 01:20:00,27.6,21.0,30.15,East,81,3.9,11.5,76,0.00,,,0.00,WeatherDisplay:10.37,2013-02-21 07:20:00,
2013-02-21 01:25:00,27.5,20.9,30.15,SE,133,7.5,11.5,76,0.00,,,0.00,WeatherDisplay:10.37,2013-02-21 07:25:00,
2013-02-21 01:30:00,27.3,21.0,30.13,East,100,8.1,10.4,77,0.00,,,0.00,WeatherDisplay:10.37,2013-02-21 07:30:00,
2013-02-21 01:35:00,27.3,21.0,30.13,East,97,6.6,11.5,77,0.00,,,0.00,WeatherDisplay:10.37,2013-02-21 07:35:00,
2013-02-21 01:40:00,27.3,21.0,30.14,NE,47,4.4,9.2,77,0.00,,,0.00,WeatherDisplay:10.37,2013-02-21 07:40:00,
2013-02-21 01:45:00,27.3,21.0,30.14,ESE,106,7.0,9.2,77,0.00,,,0.00,WeatherDisplay:10.37,2013-02-21 07:45:00,
2013-02-21 01:50:00,27.3,21.0,30.13,ESE,103,5.5,9.2,77,0.00,,,0.00,WeatherDisplay:10.37,2013-02-21 07:50:00,
2013-02-21 01:55:00,27.3,21.0,30.12,ESE,113,5.9,10.4,77,0.00,,,0.00,WeatherDisplay:10.37,2013-02-21 07:55:00,
2013-02-21 02:00:00,27.4,21.4,30.12,SE,128,4.2,11.5,78,0.00,,,0.00,WeatherDisplay:10.37,2013-02-21 08:00:00,
2013-02-21 02:05:00,27.3,21.0,30.12,East,90,6.2,11.5,77,0.00,,,0.00,WeatherDisplay:10.37,2013-02-21 08:05:00,
2013-02-21 02:10:00,27.3,21.0,30.11,ENE,65,7.4,11.5,77,0.00,,,0.00,WeatherDisplay:10.37,2013-02-21 08:10:00,
2013-02-21 02:15:00,27.3,20.7,30.11,NE,54,6.8,11.5,76,0.00,,,0.00,WeatherDisplay:10.37,2013-02-21 08:15:00,
2013-02-21 02:20:00,27.4,20.5,30.11,East,80,4.3,9.2,75,0.00,,,0.00,WeatherDisplay:10.37,2013-02-21 08:20:00,
2013-02-21 02:25:00,27.4,20.5,30.11,ESE,115,2.8,5.8,75,0.00,,,0.00,WeatherDisplay:10.37,2013-02-21 08:25:00,
2013-02-21 02:30:00,27.4,20.5,30.11,East,82,4.6,10.4,75,0.00,,,0.00,WeatherDisplay:10.37,2013-02-21 08:30:00,
2013-02-21 02:35:00,27.4,19.9,30.10,ESE,122,9.1,13.8,73,0.00,,,0.00,WeatherDisplay:10.37,2013-02-21 08:35:00,
2013-02-21 02:40:00,27.5,20.0,30.09,East,80,7.0,8.1,73,0.00,,,0.00,WeatherDisplay:10.37,2013-02-21 08:40:00,
2013-02-21 02:45:00,27.5,20.0,30.09,ESE,120,5.5,8.1,73,0.00,,,0.00,WeatherDisplay:10.37,2013-02-21 08:45:00,
2013-02-21 02:50:00,27.5,20.0,30.09,East,90,3.8,10.4,73,0.00,,,0.00,WeatherDisplay:10.37,2013-02-21 08:50:00,
2013-02-21 02:55:00,27.5,20.0,30.09,ENE,73,4.3,9.2,73,0.00,,,0.00,WeatherDisplay:10.37,2013-02-21 08:55:00,
2013-02-21 03:01:00,27.5,19.7,30.09,East,89,5.1,6.9,72,0.00,,,0.00,WeatherDisplay:10.37,2013-02-21 09:01:00,
2013-02-21 03:06:00,27.6,19.8,30.09,ESE,123,5.5,12.7,72,0.00,,,0.00,WeatherDisplay:10.37,2013-02-21 09:06:00,
2013-02-21 03:11:00,27.7,19.2,30.08,ENE,61,9.2,15.0,70,0.00,,,0.00,WeatherDisplay:10.37,2013-02-21 09:11:00,
2013-02-21 03:16:00,27.7,19.8,30.08,ESE,105,6.8,11.5,72,0.00,,,0.00,WeatherDisplay:10.37,2013-02-21 09:16:00,
2013-02-21 03:21:00,27.5,20.3,30.10,SE,126,4.5,11.5,74,0.00,,,0.00,WeatherDisplay:10.37,2013-02-21 09:21:00,
2013-02-21 03:26:00,27.4,20.5,30.08,SE,137,6.9,10.4,75,0.00,,,0.00,WeatherDisplay:10.37,2013-02-21 09:26:00,
2013-02-21 03:31:00,27.3,21.6,30.07,ESE,110,6.0,11.0,79,0.00,,,0.00,WeatherDisplay:10.37,2013-02-21 09:31:00,
2013-02-21 03:36:00,27.2,21.5,30.06,ENE,78,8.5,10.4,79,0.00,,,0.00,WeatherDisplay:10.37,2013-02-21 09:36:00,
2013-02-21 03:41:00,27.1,21.5,30.06,ESE,105,4.9,11.5,79,0.00,,,0.00,WeatherDisplay:10.37,2013-02-21 09:41:00,
2013-02-21 03:46:00,27.0,21.4,30.05,East,96,7.2,12.7,79,0.00,,,0.00,WeatherDisplay:10.37,2013-02-21 09:46:00,
2013-02-21 03:51:00,26.9,21.3,30.04,ENE,78,6.2,11.5,79,0.00,,,0.00,WeatherDisplay:10.37,2013-02-21 09:51:00,
2013-02-21 03:56:00,26.8,21.2,30.04,SE,134,7.5,10.4,79,0.00,,,0.00,WeatherDisplay:10.37,2013-02-21 09:56:00,
2013-02-21 04:01:00,26.8,21.2,30.04,SE,132,9.6,13.8,79,0.00,,,0.00,WeatherDisplay:10.37,2013-02-21 10:01:00,
2013-02-21 04:06:00,26.8,21.2,30.02,East,96,6.9,12.7,79,0.00,,,0.00,WeatherDisplay:10.37,2013-02-21 10:06:00,
2013-02-21 04:11:00,26.9,21.0,30.03,ESE,115,12.3,18.4,78,0.00,,,0.00,WeatherDisplay:10.37,2013-02-21 10:11:00,
2013-02-21 04:16:00,26.9,21.0,30.02,ESE,109,10.5,15.0,78,0.00,,,0.00,WeatherDisplay:10.37,2013-02-21 10:16:00,
2013-02-21 04:21:00,26.9,21.3,30.03,South,173,3.9,8.1,79,0.00,,,0.00,WeatherDisplay:10.37,2013-02-21 10:21:00,
2013-02-21 04:26:00,26.9,21.3,30.02,East,101,7.1,10.4,79,0.00,,,0.00,WeatherDisplay:10.37,2013-02-21 10:26:00,
2013-02-21 04:31:00,26.9,21.6,30.01,ESE,103,6.5,11.5,80,0.00,,,0.00,WeatherDisplay:10.37,2013-02-21 10:31:00,
2013-02-21 04:36:00,26.9,21.8,30.01,NE,53,7.8,13.8,81,0.00,,,0.00,WeatherDisplay:10.37,2013-02-21 10:36:00,
2013-02-21 04:41:00,26.8,22.3,30.01,East,96,6.4,11.5,83,0.00,,,0.00,WeatherDisplay:10.37,2013-02-21 10:41:00,
2013-02-21 04:46:00,26.8,22.6,30.01,SSE,153,8.6,11.5,84,0.00,,,0.00,WeatherDisplay:10.37,2013-02-21 10:46:00,
2013-02-21 04:51:00,26.8,22.9,30.00,NE,53,7.8,12.7,85,0.00,,,0.00,WeatherDisplay:10.37,2013-02-21 10:51:00,
2013-02-21 04:56:00,26.7,22.8,30.00,ESE,109,7.1,9.2,85,0.00,,,0.00,WeatherDisplay:10.37,2013-02-21 10:56:00,
2013-02-21 05:01:00,26.6,22.7,30.00,East,96,7.8,16.1,85,0.00,,,0.00,WeatherDisplay:10.37,2013-02-21 11:01:00,
2013-02-21 05:06:00,26.5,23.2,29.99,ESE,122,3.7,8.1,87,0.00,,,0.00,WeatherDisplay:10.37,2013-02-21 11:06:00,
2013-02-21 05:11:00,26.4,22.8,29.99,SE,144,5.9,9.2,86,0.00,,,0.00,WeatherDisplay:10.37,2013-02-21 11:11:00,
2013-02-21 05:16:00,26.3,23.0,30.00,ESE,110,8.6,15.0,87,0.00,,,0.00,WeatherDisplay:10.37,2013-02-21 11:16:00,
2013-02-21 05:21:00,26.3,23.0,30.00,East,94,6.7,12.0,87,0.00,,,0.00,WeatherDisplay:10.37,2013-02-21 11:21:00,
2013-02-21 05:26:00,26.3,23.0,30.00,East,90,9.9,11.5,87,0.00,,,0.00,WeatherDisplay:10.37,2013-02-21 11:26:00,
2013-02-21 05:31:00,26.3,23.2,30.00,ENE,68,6.0,9.2,88,0.00,,,0.00,WeatherDisplay:10.37,2013-02-21 11:31:00,
2013-02-21 05:36:00,26.3,23.0,29.98,East,79,9.8,16.1,87,0.00,,,0.00,WeatherDisplay:10.37,2013-02-21 11:36:00,
2013-02-21 05:41:00,26.3,23.2,29.99,SSE,148,7.0,11.5,88,0.00,,,0.00,WeatherDisplay:10.37,2013-02-21 11:41:00,
2013-02-21 05:46:00,26.3,23.2,29.99,ENE,70,6.4,11.5,88,0.00,,,0.00,WeatherDisplay:10.37,2013-02-21 11:46:00,
2013-02-21 05:51:00,26.3,23.2,30.00,SE,134,7.2,12.0,88,0.00,,,0.00,WeatherDisplay:10.37,2013-02-21 11:51:00,
2013-02-21 05:56:00,26.2,23.1,29.99,ESE,113,8.9,16.1,88,0.00,,,0.00,WeatherDisplay:10.37,2013-02-21 11:56:00,
2013-02-21 06:01:00,26.3,23.5,29.94,ESE,114,13.7,19.6,89,0.00,,,0.00,WeatherDisplay:10.37,2013-02-21 12:01:00,
2013-02-21 06:06:00,26.5,23.7,29.95,East,89,9.4,19.0,89,0.00,,,0.00,WeatherDisplay:10.37,2013-02-21 12:06:00,
2013-02-21 06:11:00,26.7,24.2,29.95,ESE,106,7.1,12.7,90,0.00,,,0.00,WeatherDisplay:10.37,2013-02-21 12:11:00,
2013-02-21 06:16:00,26.7,24.2,29.98,ESE,115,7.0,11.0,90,0.00,,,0.00,WeatherDisplay:10.37,2013-02-21 12:16:00,
2013-02-21 06:21:00,26.7,23.9,29.98,ESE,111,11.8,19.6,89,0.00,,,0.00,WeatherDisplay:10.37,2013-02-21 12:21:00,
2013-02-21 06:26:00,26.7,24.2,29.99,ESE,113,10.6,13.0,90,0.00,,,0.00,WeatherDisplay:10.37,2013-02-21 12:26:00,
2013-02-21 06:31:00,26.8,24.3,29.97,East,96,6.8,13.8,90,0.00,,,0.00,WeatherDisplay:10.37,2013-02-21 12:31:00,
2013-02-21 06:36:00,26.7,24.2,29.99,SE,131,7.7,16.0,90,0.00,,,0.00,WeatherDisplay:10.37,2013-02-21 12:36:00,
2013-02-21 06:41:00,26.7,24.2,29.96,ENE,64,10.2,15.0,90,0.00,,,0.00,WeatherDisplay:10.37,2013-02-21 12:41:00,
2013-02-21 06:46:00,26.9,24.4,29.92,SE,131,9.6,19.6,90,0.00,,,0.00,WeatherDisplay:10.37,2013-02-21 12:46:00,
2013-02-21 06:51:00,26.7,24.2,29.94,ESE,105,8.6,17.3,90,0.00,,,0.00,WeatherDisplay:10.37,2013-02-21 12:51:00,
2013-02-21 06:56:00,26.7,24.4,29.94,ESE,102,8.1,11.5,91,0.00,,,0.00,WeatherDisplay:10.37,2013-02-21 12:56:00,
2013-02-21 07:01:00,26.7,24.2,29.93,East,88,10.7,14.0,90,0.00,,,0.00,WeatherDisplay:10.37,2013-02-21 13:01:00,
2013-02-21 07:06:00,26.6,23.8,29.93,ESE,110,8.3,12.7,89,0.00,,,0.00,WeatherDisplay:10.37,2013-02-21 13:06:00,
2013-02-21 07:11:00,26.3,23.5,29.92,ESE,106,8.6,12.7,89,0.00,,,0.00,WeatherDisplay:10.37,2013-02-21 13:11:00,
2013-02-21 07:16:00,26.3,23.8,29.92,East,100,10.4,11.5,90,0.00,,,0.00,WeatherDisplay:10.37,2013-02-21 13:16:00,
2013-02-21 07:21:00,26.2,23.7,29.93,ESE,118,7.4,17.3,90,0.00,,,0.00,WeatherDisplay:10.37,2013-02-21 13:21:00,
2013-02-21 07:26:00,26.2,23.7,29.93,SE,138,12.2,20.7,90,0.00,,,0.00,WeatherDisplay:10.37,2013-02-21 13:26:00,
2013-02-21 07:31:00,26.2,23.7,29.94,ESE,115,7.6,12.7,90,0.00,,,0.00,WeatherDisplay:10.37,2013-02-21 13:31:00,
2013-02-21 07:36:00,26.2,23.7,29.94,ESE,106,8.7,12.0,90,0.00,,,0.00,WeatherDisplay:10.37,2013-02-21 13:36:00,
2013-02-21 07:41:00,26.2,23.7,29.94,ESE,114,8.4,12.7,90,0.00,,,0.00,WeatherDisplay:10.37,2013-02-21 13:41:00,
2013-02-21 07:46:00,26.3,23.8,29.94,ESE,113,10.9,11.5,90,0.00,,,0.00,WeatherDisplay:10.37,2013-02-21 13:46:00,
2013-02-21 07:51:00,26.3,23.8,29.94,East,89,8.3,12.7,90,0.00,,,0.00,WeatherDisplay:10.37,2013-02-21 13:51:00,
2013-02-21 07:56:00,26.6,24.3,29.93,ESE,105,7.4,12.0,91,0.00,,,0.00,WeatherDisplay:10.37,2013-02-21 13:56:00,
2013-02-21 08:01:00,26.7,24.4,29.93,SSE,160,6.2,8.1,91,0.00,,,0.00,WeatherDisplay:10.37,2013-02-21 14:01:00,
2013-02-21 08:07:00,26.6,24.3,29.92,East,97,7.4,19.6,91,0.00,,,0.00,WeatherDisplay:10.37,2013-02-21 14:07:00,
2013-02-21 08:12:00,26.6,24.3,29.92,East,82,9.8,12.7,91,0.00,,,0.00,WeatherDisplay:10.37,2013-02-21 14:12:00,
2013-02-21 08:17:00,26.6,24.3,29.92,East,99,5.5,13.8,91,0.00,,,0.00,WeatherDisplay:10.37,2013-02-21 14:17:00,
2013-02-21 08:22:00,26.6,24.3,29.91,ESE,112,6.1,12.7,91,0.00,,,0.00,WeatherDisplay:10.37,2013-02-21 14:22:00,
2013-02-21 08:27:00,26.7,24.4,29.90,ESE,113,7.1,13.8,91,0.00,,,0.00,WeatherDisplay:10.37,2013-02-21 14:27:00,
2013-02-21 08:32:00,26.7,24.4,29.90,ESE,104,5.2,8.1,91,0.00,,,0.00,WeatherDisplay:10.37,2013-02-21 14:32:00,
2013-02-21 08:37:00,26.6,24.3,29.90,East,92,8.7,18.4,91,0.00,,,0.00,WeatherDisplay:10.37,2013-02-21 14:37:00,
2013-02-21 08:42:00,26.7,24.4,29.89,ESE,112,7.7,11.5,91,0.00,,,0.00,WeatherDisplay:10.37,2013-02-21 14:42:00,
2013-02-21 08:47:00,26.7,24.2,29.88,East,96,9.4,15.0,90,0.00,,,0.00,WeatherDisplay:10.37,2013-02-21 14:47:00,
2013-02-21 08:52:00,26.7,24.2,29.89,ESE,120,10.8,12.7,90,0.00,,,0.00,WeatherDisplay:10.37,2013-02-21 14:52:00,
2013-02-21 08:57:00,26.8,24.3,29.88,East,79,9.6,15.0,90,0.00,,,0.00,WeatherDisplay:10.37,2013-02-21 14:57:00,
2013-02-21 09:02:00,26.9,24.4,29.86,SSE,154,7.5,15.0,90,0.00,,,0.00,WeatherDisplay:10.37,2013-02-21 15:02:00,
2013-02-21 09:07:00,26.9,24.4,29.87,SE,135,7.3,18.4,90,0.00,,,0.00,WeatherDisplay:10.37,2013-02-21 15:07:00,
2013-02-21 09:12:00,27.0,24.5,29.86,ESE,105,9.9,12.7,90,0.00,,,0.00,WeatherDisplay:10.37,2013-02-21 15:12:00,
2013-02-21 09:17:00,27.5,25.5,29.87,ESE,103,7.9,12.0,92,0.00,,,0.00,WeatherDisplay:10.37,2013-02-21 15:17:00,
2013-02-21 09:22:00,27.4,24.9,29.87,ESE,104,8.6,17.3,90,0.00,,,0.00,WeatherDisplay:10.37,2013-02-21 15:22:00,
2013-02-21 09:27:00,27.2,24.7,29.84,East,88,11.2,16.1,90,0.00,,,0.00,WeatherDisplay:10.37,2013-02-21 15:27:00,
2013-02-21 09:32:00,27.2,24.7,29.85,ESE,122,6.0,11.5,90,0.00,,,0.00,WeatherDisplay:10.37,2013-02-21 15:32:00,
2013-02-21 09:37:00,27.1,24.6,29.85,ESE,103,10.3,16.1,90,0.00,,,0.00,WeatherDisplay:10.37,2013-02-21 15:37:00,
2013-02-21 09:42:00,27.4,25.1,29.87,SE,132,5.5,13.8,91,0.00,,,0.00,WeatherDisplay:10.37,2013-02-21 15:42:00,
2013-02-21 09:47:00,28.2,26.4,29.85,ESE,110,6.6,10.4,93,0.00,,,0.00,WeatherDisplay:10.37,2013-02-21 15:47:00,
2013-02-21 09:52:00,27.9,25.3,29.84,SE,143,6.9,11.5,90,0.00,,,0.00,WeatherDisplay:10.37,2013-02-21 15:52:00,
2013-02-21 09:57:00,27.4,24.9,29.83,East,101,9.7,12.7,90,0.00,,,0.00,WeatherDisplay:10.37,2013-02-21 15:57:00,
2013-02-21 10:02:00,27.3,24.8,29.81,East,94,4.4,9.2,90,0.00,,,0.00,WeatherDisplay:10.37,2013-02-21 16:02:00,
2013-02-21 10:07:00,27.4,25.1,29.82,ENE,68,11.2,15.0,91,0.00,,,0.00,WeatherDisplay:10.37,2013-02-21 16:07:00,
2013-02-21 10:12:00,27.4,24.9,29.85,ENE,61,8.3,12.0,90,0.00,,,0.00,WeatherDisplay:10.37,2013-02-21 16:12:00,
2013-02-21 10:17:00,27.4,24.9,29.90,NW,315,0.4,3.5,90,0.00,,,0.00,WeatherDisplay:10.37,2013-02-21 16:17:00,
2013-02-21 10:22:00,27.8,25.5,30.04,NW,326,6.8,10.4,91,0.00,,,0.00,WeatherDisplay:10.37,2013-02-21 16:22:00,
2013-02-21 10:27:00,27.7,25.4,29.89,ESE,115,4.0,6.9,91,0.00,,,0.00,WeatherDisplay:10.37,2013-02-21 16:27:00,
2013-02-21 10:32:00,27.7,25.4,29.97,West,281,1.2,3.5,91,0.00,,,0.00,WeatherDisplay:10.37,2013-02-21 16:32:00,
2013-02-21 10:37:00,27.8,25.8,29.99,WNW,284,4.2,4.6,92,0.00,,,0.00,WeatherDisplay:10.37,2013-02-21 16:37:00,
2013-02-21 10:42:00,27.8,25.8,29.91,ENE,77,6.7,8.1,92,0.00,,,0.00,WeatherDisplay:10.37,2013-02-21 16:42:00,
2013-02-21 10:47:00,27.5,25.5,29.92,SSW,211,0.7,3.5,92,0.00,,,0.00,WeatherDisplay:10.37,2013-02-21 16:47:00,
2013-02-21 10:52:00,27.5,25.5,29.95,West,269,0.7,2.3,92,0.00,,,0.00,WeatherDisplay:10.37,2013-02-21 16:52:00,
2013-02-21 10:57:00,27.6,25.8,29.95,SSE,156,0.3,1.1,93,0.00,,,0.00,WeatherDisplay:10.37,2013-02-21 16:57:00,
2013-02-21 11:02:00,27.6,25.8,29.94,ESE,110,0.2,1.1,93,0.00,,,0.00,WeatherDisplay:10.37,2013-02-21 17:02:00,
2013-02-21 11:07:00,27.5,25.7,29.93,ENE,64,1.5,3.5,93,0.00,CLR,,0.00,WeatherDisplay:10.37,2013-02-21 17:07:00,
2013-02-21 11:13:00,27.7,26.2,29.97,WSW,243,0.4,1.1,94,0.00,CLR,,0.00,WeatherDisplay:10.37,2013-02-21 17:13:00,
2013-02-21 11:18:00,27.8,26.3,29.95,NW,323,0.0,0.0,94,0.00,CLR,,0.00,WeatherDisplay:10.37,2013-02-21 17:18:00,
2013-02-21 11:23:00,28.0,26.5,29.98,West,276,0.0,1.1,94,0.00,CLR,,0.00,WeatherDisplay:10.37,2013-02-21 17:23:00,
2013-02-21 11:28:00,27.8,26.3,29.94,ENE,74,2.1,2.1,94,0.00,CLR,,0.00,WeatherDisplay:10.37,2013-02-21 17:28:00,
2013-02-21 11:33:00,27.6,26.1,29.93,ESE,107,1.9,3.5,94,0.00,CLR,,0.00,WeatherDisplay:10.37,2013-02-21 17:33:00,
2013-02-21 11:38:00,27.6,26.1,29.93,East,89,2.7,3.5,94,0.00,CLR,,0.00,WeatherDisplay:10.37,2013-02-21 17:38:00,
2013-02-21 11:43:00,27.7,26.2,29.93,ENE,63,1.3,3.5,94,0.00,CLR,,0.00,WeatherDisplay:10.37,2013-02-21 17:43:00,
2013-02-21 11:48:00,27.9,26.4,29.92,ENE,76,2.3,3.0,94,0.00,CLR,,0.00,WeatherDisplay:10.37,2013-02-21 17:48:00,
2013-02-21 11:53:00,27.9,26.4,29.92,East,81,3.2,4.0,94,0.00,CLR,,0.00,WeatherDisplay:10.37,2013-02-21 17:53:00,
2013-02-21 11:58:00,27.9,26.4,29.91,ENE,75,3.7,5.8,94,0.00,CLR,,0.00,WeatherDisplay:10.37,2013-02-21 17:58:00,
2013-02-21 12:03:00,28.0,26.5,29.89,ENE,64,5.5,8.1,94,0.00,CLR,,0.00,WeatherDisplay:10.37,2013-02-21 18:03:00,
2013-02-21 12:08:00,28.2,26.7,29.88,East,84,6.6,9.2,94,0.00,CLR,,0.00,WeatherDisplay:10.37,2013-02-21 18:08:00,
2013-02-21 12:13:00,28.4,26.9,29.86,ESE,103,5.4,7.0,94,0.00,CLR,,0.00,WeatherDisplay:10.37,2013-02-21 18:13:00,
2013-02-21 12:18:00,28.8,27.3,29.87,ENE,72,7.5,10.4,94,0.00,CLR,,0.00,WeatherDisplay:10.37,2013-02-21 18:18:00,
2013-02-21 12:23:00,28.8,27.3,29.90,East,101,5.2,8.0,94,0.00,CLR,,0.00,WeatherDisplay:10.37,2013-02-21 18:23:00,
2013-02-21 12:28:00,28.5,26.7,29.88,ESE,118,6.7,9.2,93,0.00,CLR,,0.00,WeatherDisplay:10.37,2013-02-21 18:28:00,
2013-02-21 12:33:00,28.8,27.0,29.87,ENE,65,3.6,5.8,93,0.00,CLR,,0.00,WeatherDisplay:10.37,2013-02-21 18:33:00,
2013-02-21 12:38:00,28.8,27.0,29.86,East,94,5.5,8.1,93,0.00,CLR,,0.00,WeatherDisplay:10.37,2013-02-21 18:38:00,
2013-02-21 12:43:00,28.9,27.1,29.86,East,96,1.8,3.5,93,0.00,CLR,,0.00,WeatherDisplay:10.37,2013-02-21 18:43:00,
2013-02-21 12:48:00,28.9,27.1,29.86,ENE,75,3.9,4.6,93,0.00,CLR,,0.00,WeatherDisplay:10.37,2013-02-21 18:48:00,
2013-02-21 12:53:00,28.8,27.0,29.85,ENE,69,5.0,5.8,93,0.00,CLR,,0.00,WeatherDisplay:10.37,2013-02-21 18:53:00,
2013-02-21 12:58:00,28.9,27.1,29.84,ENE,60,4.3,8.1,93,0.00,CLR,,0.00,WeatherDisplay:10.37,2013-02-21 18:58:00,
2013-02-21 13:03:00,29.1,27.3,29.82,NE,53,7.8,11.5,93,0.00,CLR,,0.00,WeatherDisplay:10.37,2013-02-21 19:03:00,
2013-02-21 13:08:00,29.4,27.6,29.83,East,95,2.8,7.0,93,0.00,CLR,,0.00,WeatherDisplay:10.37,2013-02-21 19:08:00,
2013-02-21 13:13:00,29.1,27.3,29.83,ESE,102,7.5,12.7,93,0.00,CLR,,0.00,WeatherDisplay:10.37,2013-02-21 19:13:00,
2013-02-21 13:18:00,29.0,27.2,29.83,ENE,77,6.9,9.2,93,0.00,CLR,,0.00,WeatherDisplay:10.37,2013-02-21 19:18:00,
2013-02-21 13:23:00,29.1,27.3,29.83,ENE,73,3.9,5.8,93,0.00,CLR,,0.00,WeatherDisplay:10.37,2013-02-21 19:23:00,
2013-02-21 13:28:00,29.3,27.5,29.81,East,84,6.2,11.5,93,0.00,CLR,,0.00,WeatherDisplay:10.37,2013-02-21 19:28:00,
2013-02-21 13:33:00,29.4,27.6,29.82,East,79,5.3,9.2,93,0.00,CLR,,0.00,WeatherDisplay:10.37,2013-02-21 19:33:00,
2013-02-21 13:38:00,29.3,27.5,29.81,East,81,6.8,11.5,93,0.00,CLR,,0.00,WeatherDisplay:10.37,2013-02-21 19:38:00,
2013-02-21 13:43:00,29.4,27.9,29.80,ENE,77,2.8,4.0,94,0.00,CLR,,0.00,WeatherDisplay:10.37,2013-02-21 19:43:00,
2013-02-21 13:48:00,29.4,27.9,29.80,East,94,7.0,11.5,94,0.00,CLR,,0.00,WeatherDisplay:10.37,2013-02-21 19:48:00,
2013-02-21 13:53:00,29.4,27.6,29.78,East,97,9.4,11.5,93,0.00,CLR,,0.00,WeatherDisplay:10.37,2013-02-21 19:53:00,
2013-02-21 13:58:00,29.4,27.9,29.78,SSE,148,6.2,10.4,94,0.00,CLR,,0.00,WeatherDisplay:10.37,2013-02-21 19:58:00,
2013-02-21 14:03:00,29.4,27.9,29.78,East,91,7.7,15.0,94,0.00,CLR,,0.00,WeatherDisplay:10.37,2013-02-21 20:03:00,
2013-02-21 14:08:00,29.4,27.9,29.78,ESE,113,4.6,6.9,94,0.00,,,0.00,WeatherDisplay:10.37,2013-02-21 20:08:00,
2013-02-21 14:13:00,29.5,28.0,29.78,East,89,5.4,6.9,94,0.00,,,0.00,WeatherDisplay:10.37,2013-02-21 20:13:00,
2013-02-21 14:18:00,29.4,27.9,29.78,East,99,8.0,10.4,94,0.00,,,0.00,WeatherDisplay:10.37,2013-02-21 20:18:00,
2013-02-21 14:23:00,29.6,28.1,29.78,East,83,3.6,5.0,94,0.00,,,0.00,WeatherDisplay:10.37,2013-02-21 20:23:00,
2013-02-21 14:28:00,29.6,28.1,29.77,East,99,9.6,18.4,94,0.00,,,0.00,WeatherDisplay:10.37,2013-02-21 20:28:00,
2013-02-21 14:33:00,29.6,28.1,29.77,SE,130,3.9,5.8,94,0.00,,,0.00,WeatherDisplay:10.37,2013-02-21 20:33:00,
2013-02-21 14:38:00,29.7,28.2,29.78,East,99,3.2,6.9,94,0.00,,,0.00,WeatherDisplay:10.37,2013-02-21 20:38:00,
2013-02-21 14:43:00,29.6,28.1,29.77,ENE,73,5.0,7.0,94,0.00,,,0.00,WeatherDisplay:10.37,2013-02-21 20:43:00,
2013-02-21 14:48:00,29.6,28.1,29.78,NE,56,3.8,5.8,94,0.00,,,0.00,WeatherDisplay:10.37,2013-02-21 20:48:00,
2013-02-21 14:53:00,29.6,28.1,29.77,SE,129,6.9,8.1,94,0.00,,,0.00,WeatherDisplay:10.37,2013-02-21 20:53:00,
2013-02-21 14:58:00,29.6,28.1,29.77,ENE,58,4.0,12.0,94,0.00,,,0.00,WeatherDisplay:10.37,2013-02-21 20:58:00,
2013-02-21 15:03:00,29.6,28.1,29.77,SE,131,5.7,10.4,94,0.00,,,0.00,WeatherDisplay:10.37,2013-02-21 21:03:00,
2013-02-21 15:08:00,29.5,28.0,29.77,ESE,117,7.5,10.4,94,0.00,,,0.00,WeatherDisplay:10.37,2013-02-21 21:08:00,
2013-02-21 15:13:00,29.6,28.1,29.77,ESE,115,4.1,6.0,94,0.00,,,0.00,WeatherDisplay:10.37,2013-02-21 21:13:00,
2013-02-21 15:18:00,29.5,28.0,29.77,ESE,120,4.2,5.8,94,0.00,,,0.00,WeatherDisplay:10.37,2013-02-21 21:18:00,
2013-02-21 15:23:00,29.4,27.9,29.77,East,86,3.4,9.2,94,0.00,,,0.00,WeatherDisplay:10.37,2013-02-21 21:23:00,
2013-02-21 15:28:00,29.5,28.0,29.77,ESE,118,7.1,11.5,94,0.00,,,0.00,WeatherDisplay:10.37,2013-02-21 21:28:00,
2013-02-21 15:33:00,29.5,28.0,29.77,ESE,105,3.3,9.2,94,0.00,,,0.00,WeatherDisplay:10.37,2013-02-21 21:33:00,
2013-02-21 15:38:00,29.5,28.2,29.76,East,101,5.3,10.4,95,0.00,,,0.00,WeatherDisplay:10.37,2013-02-21 21:38:00,
2013-02-21 15:44:00,29.6,28.3,29.76,ESE,103,4.0,9.2,95,0.00,,,0.00,WeatherDisplay:10.37,2013-02-21 21:44:00,
2013-02-21 15:49:00,29.6,28.3,29.77,ESE,105,4.4,8.0,95,0.00,,,0.00,WeatherDisplay:10.37,2013-02-21 21:49:00,
2013-02-21 15:54:00,29.7,28.4,29.78,ESE,112,2.0,3.5,95,0.00,,,0.00,WeatherDisplay:10.37,2013-02-21 21:54:00,
2013-02-21 15:59:00,29.8,28.5,29.78,East,95,0.9,2.3,95,0.00,,,0.00,WeatherDisplay:10.37,2013-02-21 21:59:00,
2013-02-21 16:04:00,29.9,28.6,29.77,East,84,1.3,8.0,95,0.00,,,0.00,WeatherDisplay:10.37,2013-02-21 22:04:00,
2013-02-21 16:09:00,30.1,28.8,29.76,South,188,2.9,5.0,95,0.00,,,0.00,WeatherDisplay:10.37,2013-02-21 22:09:00,
2013-02-21 16:14:00,30.1,28.8,29.77,ESE,111,3.5,4.6,95,0.00,,,0.00,WeatherDisplay:10.37,2013-02-21 22:14:00,
2013-02-21 16:19:00,30.2,28.9,29.77,ESE,103,2.7,9.0,95,0.00,,,0.00,WeatherDisplay:10.37,2013-02-21 22:19:00,
2013-02-21 16:24:00,30.3,29.0,29.77,SSE,157,3.3,5.0,95,0.00,,,0.00,WeatherDisplay:10.37,2013-02-21 22:24:00,
2013-02-21 16:29:00,30.3,29.0,29.77,SE,129,4.1,6.9,95,0.00,,,0.00,WeatherDisplay:10.37,2013-02-21 22:29:00,
2013-02-21 16:34:00,30.4,29.1,29.77,ESE,105,3.9,6.0,95,0.00,,,0.00,WeatherDisplay:10.37,2013-02-21 22:34:00,
2013-02-21 16:39:00,30.4,29.1,29.76,ESE,115,5.4,8.1,95,0.00,,,0.00,WeatherDisplay:10.37,2013-02-21 22:39:00,
2013-02-21 16:44:00,30.4,29.1,29.77,ESE,111,2.3,5.0,95,0.00,,,0.00,WeatherDisplay:10.37,2013-02-21 22:44:00,
2013-02-21 16:49:00,30.4,29.1,29.76,ESE,105,7.0,9.2,95,0.00,,,0.00,WeatherDisplay:10.37,2013-02-21 22:49:00,
2013-02-21 16:54:00,30.4,29.1,29.77,ENE,75,4.8,8.1,95,0.00,,,0.00,WeatherDisplay:10.37,2013-02-21 22:54:00,
2013-02-21 16:59:00,30.5,29.2,29.77,SSE,151,3.1,8.1,95,0.00,,,0.00,WeatherDisplay:10.37,2013-02-21 22:59:00,
2013-02-21 17:04:00,30.5,29.2,29.77,WSW,252,4.4,5.8,95,0.00,,,0.00,WeatherDisplay:10.37,2013-02-21 23:04:00,
2013-02-21 17:09:00,30.5,29.2,29.77,SE,129,3.5,5.8,95,0.00,,,0.00,WeatherDisplay:10.37,2013-02-21 23:09:00,
2013-02-21 17:14:00,30.5,29.2,29.77,East,89,4.7,8.1,95,0.00,,,0.00,WeatherDisplay:10.37,2013-02-21 23:14:00,
2013-02-21 17:19:00,30.6,29.3,29.78,ENE,78,3.7,5.8,95,0.00,,,0.00,WeatherDisplay:10.37,2013-02-21 23:19:00,
2013-02-21 17:24:00,30.6,29.3,29.78,SSE,152,4.5,5.8,95,0.00,,,0.00,WeatherDisplay:10.37,2013-02-21 23:24:00,
2013-02-21 17:29:00,30.6,29.3,29.78,ESE,105,2.0,3.5,95,0.00,,,0.00,WeatherDisplay:10.37,2013-02-21 23:29:00,
2013-02-21 17:34:00,30.6,29.3,29.79,South,179,4.6,5.8,95,0.00,,,0.00,WeatherDisplay:10.37,2013-02-21 23:34:00,
2013-02-21 17:39:00,30.6,29.3,29.80,ESE,105,2.7,4.0,95,0.00,,,0.00,WeatherDisplay:10.37,2013-02-21 23:39:00,
2013-02-21 17:44:00,30.6,29.3,29.80,SE,143,3.1,5.8,95,0.00,,,0.00,WeatherDisplay:10.37,2013-02-21 23:44:00,
2013-02-21 17:49:00,30.6,29.3,29.79,SE,127,3.0,3.5,95,0.00,,,0.00,WeatherDisplay:10.37,2013-02-21 23:49:00,
2013-02-21 17:54:00,30.7,29.4,29.80,SE,136,1.6,3.5,95,0.00,,,0.00,WeatherDisplay:10.37,2013-02-21 23:54:00,
2013-02-21 17:59:00,30.7,29.4,29.81,ENE,69,3.2,3.5,95,0.00,,,0.00,WeatherDisplay:10.37,2013-02-21 23:59:00,
2013-02-21 18:04:00,30.7,29.4,29.81,South,179,1.6,3.5,95,0.00,,,0.00,WeatherDisplay:10.37,2013-02-22 00:04:00,
2013-02-21 18:09:00,30.7,29.4,29.81,SE,135,3.1,6.9,95,0.00,,,0.00,WeatherDisplay:10.37,2013-02-22 00:09:00,
2013-02-21 18:14:00,30.8,29.5,29.82,SE,144,1.4,2.3,95,0.00,,,0.00,WeatherDisplay:10.37,2013-02-22 00:14:00,
2013-02-21 18:19:00,30.8,30.8,29.82,SE,136,2.2,3.5,100,0.00,,,0.00,WeatherDisplay:10.37,2013-02-22 00:19:00,
2013-02-21 18:24:00,30.8,30.8,29.81,ESE,115,2.3,3.5,100,0.00,,,0.00,WeatherDisplay:10.37,2013-02-22 00:24:00,
2013-02-21 18:29:00,30.8,30.8,29.82,SSE,156,1.6,3.5,100,0.00,,,0.00,WeatherDisplay:10.37,2013-02-22 00:29:00,
2013-02-21 18:34:00,30.8,30.8,29.82,South,169,1.5,3.5,100,0.00,,,0.00,WeatherDisplay:10.37,2013-02-22 00:34:00,
2013-02-21 18:39:00,30.9,30.9,29.82,ESE,121,2.0,4.0,100,0.00,,,0.00,WeatherDisplay:10.37,2013-02-22 00:39:00,
2013-02-21 18:44:00,30.8,30.8,29.82,SW,230,3.5,3.5,100,0.00,,,0.00,WeatherDisplay:10.37,2013-02-22 00:44:00,
2013-02-21 18:49:00,30.8,30.8,29.82,SSE,149,1.4,3.5,100,0.00,,,0.00,WeatherDisplay:10.37,2013-02-22 00:49:00,
2013-02-21 18:54:00,30.8,30.8,29.82,SE,143,2.1,4.0,100,0.00,,,0.00,WeatherDisplay:10.37,2013-02-22 00:54:00,
2013-02-21 18:59:00,30.8,30.8,29.83,SSW,194,2.8,3.5,100,0.00,,,0.00,WeatherDisplay:10.37,2013-02-22 00:59:00,
2013-02-21 19:04:00,30.8,30.8,29.83,ESE,121,4.4,5.8,100,0.00,,,0.00,WeatherDisplay:10.37,2013-02-22 01:04:00,
2013-02-21 19:09:00,30.8,30.8,29.83,SE,136,5.1,6.9,100,0.00,,,0.00,WeatherDisplay:10.37,2013-02-22 01:09:00,
2013-02-21 19:14:00,30.8,30.8,29.82,SE,141,3.1,3.5,100,0.00,,,0.00,WeatherDisplay:10.37,2013-02-22 01:14:00,
2013-02-21 19:19:00,30.8,30.8,29.83,SW,217,3.6,4.6,100,0.00,,,0.00,WeatherDisplay:10.37,2013-02-22 01:19:00,
2013-02-21 19:24:00,30.8,30.8,29.83,East,97,1.8,3.0,100,0.00,,,0.00,WeatherDisplay:10.37,2013-02-22 01:24:00,
2013-02-21 19:29:00,30.7,30.7,29.82,East,90,2.1,4.0,100,0.00,,,0.00,WeatherDisplay:10.37,2013-02-22 01:29:00,
2013-02-21 19:34:00,30.7,30.7,29.82,SSW,204,0.9,2.0,100,0.00,,,0.00,WeatherDisplay:10.37,2013-02-22 01:34:00,
2013-02-21 19:39:00,30.8,30.8,29.83,SW,222,0.5,3.5,100,0.00,,,0.00,WeatherDisplay:10.37,2013-02-22 01:39:00,
2013-02-21 19:44:00,30.7,30.7,29.83,ESE,108,3.7,5.0,100,0.00,,,0.00,WeatherDisplay:10.37,2013-02-22 01:44:00,
2013-02-21 19:49:00,30.7,30.7,29.83,ESE,122,3.0,5.8,100,0.00,,,0.00,WeatherDisplay:10.37,2013-02-22 01:49:00,
2013-02-21 19:54:00,30.7,30.7,29.83,SSE,153,1.2,2.3,100,0.00,,,0.00,WeatherDisplay:10.37,2013-02-22 01:54:00,
2013-02-21 19:59:00,30.7,30.7,29.82,SSE,147,2.8,3.5,100,0.00,,,0.00,WeatherDisplay:10.37,2013-02-22 01:59:00,
2013-02-21 20:04:00,30.7,30.7,29.82,ESE,109,2.9,3.5,100,0.00,,,0.00,WeatherDisplay:10.37,2013-02-22 02:04:00,
2013-02-21 20:09:00,30.7,30.7,29.82,SSE,147,2.1,4.6,100,0.00,,,0.00,WeatherDisplay:10.37,2013-02-22 02:09:00,
2013-02-21 20:14:00,30.7,30.7,29.82,SE,145,1.6,3.5,100,0.00,,,0.00,WeatherDisplay:10.37,2013-02-22 02:14:00,
2013-02-21 20:19:00,30.7,30.7,29.82,SE,133,2.5,4.6,100,0.00,,,0.00,WeatherDisplay:10.37,2013-02-22 02:19:00,
2013-02-21 20:24:00,30.7,30.7,29.82,SE,131,1.7,2.3,100,0.00,,,0.00,WeatherDisplay:10.37,2013-02-22 02:24:00,
2013-02-21 20:29:00,30.7,30.7,29.82,SE,141,1.9,3.5,100,0.00,,,0.00,WeatherDisplay:10.37,2013-02-22 02:29:00,
2013-02-21 20:34:00,30.7,30.7,29.82,ESE,110,1.8,3.5,100,0.00,,,0.00,WeatherDisplay:10.37,2013-02-22 02:34:00,
2013-02-21 20:39:00,30.7,30.7,29.82,SSE,147,1.8,3.5,100,0.00,,,0.00,WeatherDisplay:10.37,2013-02-22 02:39:00,
2013-02-21 20:44:00,30.8,30.8,29.82,SE,145,2.7,3.5,100,0.00,,,0.00,WeatherDisplay:10.37,2013-02-22 02:44:00,
2013-02-21 20:49:00,30.8,30.8,29.82,SSE,154,0.7,3.5,100,0.00,,,0.00,WeatherDisplay:10.37,2013-02-22 02:49:00,
2013-02-21 20:54:00,30.8,30.8,29.83,South,181,1.7,3.5,100,0.00,,,0.00,WeatherDisplay:10.37,2013-02-22 02:54:00,
2013-02-21 20:59:00,30.8,30.8,29.82,ESE,110,4.6,4.6,100,0.00,,,0.00,WeatherDisplay:10.37,2013-02-22 02:59:00,
2013-02-21 21:04:00,30.8,30.8,29.82,ESE,121,1.4,3.5,100,0.00,,,0.00,WeatherDisplay:10.37,2013-02-22 03:04:00,
2013-02-21 21:09:00,30.8,30.8,29.83,SE,131,2.1,3.5,100,0.00,,,0.00,WeatherDisplay:10.37,2013-02-22 03:09:00,
2013-02-21 21:14:00,30.8,30.8,29.83,SSE,167,1.1,2.3,100,0.00,,,0.00,WeatherDisplay:10.37,2013-02-22 03:14:00,
2013-02-21 21:20:00,30.8,30.8,29.83,SSE,152,2.2,3.5,100,0.00,,,0.00,WeatherDisplay:10.37,2013-02-22 03:20:00,
2013-02-21 21:25:00,30.8,30.8,29.83,SE,124,1.6,3.0,100,0.00,,,0.00,WeatherDisplay:10.37,2013-02-22 03:25:00,
2013-02-21 21:30:00,30.8,30.8,29.83,SSE,149,3.0,3.5,100,0.00,,,0.00,WeatherDisplay:10.37,2013-02-22 03:30:00,
2013-02-21 21:35:00,30.8,30.8,29.83,SSE,148,2.2,3.0,100,0.00,,,0.00,WeatherDisplay:10.37,2013-02-22 03:35:00,
2013-02-21 21:40:00,30.8,30.8,29.83,SE,137,2.0,2.3,100,0.00,,,0.00,WeatherDisplay:10.37,2013-02-22 03:40:00,
2013-02-21 21:45:00,30.8,30.8,29.84,South,179,2.6,5.8,100,0.00,,,0.00,WeatherDisplay:10.37,2013-02-22 03:45:00,
2013-02-21 21:50:00,30.8,30.8,29.84,SE,136,2.2,5.8,100,0.00,,,0.00,WeatherDisplay:10.37,2013-02-22 03:50:00,
2013-02-21 21:55:00,30.8,30.8,29.84,SSW,195,2.3,3.5,100,0.00,,,0.00,WeatherDisplay:10.37,2013-02-22 03:55:00,
2013-02-21 22:00:00,30.8,30.8,29.84,SW,216,2.7,4.0,100,0.00,,,0.00,WeatherDisplay:10.37,2013-02-22 04:00:00,
2013-02-21 22:05:00,30.8,30.8,29.84,SSE,164,2.6,4.6,100,0.00,,,0.00,WeatherDisplay:10.37,2013-02-22 04:05:00,
2013-02-21 22:10:00,30.8,30.8,29.84,SE,145,1.5,3.5,100,0.00,,,0.00,WeatherDisplay:10.37,2013-02-22 04:10:00,
2013-02-21 22:15:00,30.8,30.8,29.84,SE,144,3.0,6.0,100,0.00,,,0.00,WeatherDisplay:10.37,2013-02-22 04:15:00,
2013-02-21 22:20:00,30.9,30.9,29.84,SW,214,2.4,3.5,100,0.00,,,0.00,WeatherDisplay:10.37,2013-02-22 04:20:00,
2013-02-21 22:25:00,30.9,30.9,29.84,SSE,166,2.0,4.0,100,0.00,,,0.00,WeatherDisplay:10.37,2013-02-22 04:25:00,
2013-02-21 22:30:00,30.9,30.9,29.84,South,184,2.0,3.0,100,0.00,,,0.00,WeatherDisplay:10.37,2013-02-22 04:30:00,
2013-02-21 22:35:00,30.9,30.9,29.84,SSE,152,1.2,4.6,100,0.00,,,0.00,WeatherDisplay:10.37,2013-02-22 04:35:00,
2013-02-21 22:40:00,31.0,31.0,29.85,SSW,210,2.2,3.5,100,0.00,,,0.00,WeatherDisplay:10.37,2013-02-22 04:40:00,
2013-02-21 22:45:00,31.0,31.0,29.85,South,179,2.0,4.0,100,0.00,,,0.00,WeatherDisplay:10.37,2013-02-22 04:45:00,
2013-02-21 22:50:00,31.0,31.0,29.84,SSW,203,1.3,2.3,100,0.00,,,0.00,WeatherDisplay:10.37,2013-02-22 04:50:00,
2013-02-21 22:55:00,31.0,31.0,29.85,SSE,155,2.0,3.0,100,0.00,,,0.00,WeatherDisplay:10.37,2013-02-22 04:55:00,
2013-02-21 23:00:00,31.1,31.1,29.85,SSE,149,3.0,3.5,100,0.00,,,0.00,WeatherDisplay:10.37,2013-02-22 05:00:00,
2013-02-21 23:05:00,31.1,31.1,29.85,South,169,1.1,2.3,100,0.00,,,0.00,WeatherDisplay:10.37,2013-02-22 05:05:00,
2013-02-21 23:10:00,31.1,31.1,29.85,SSW,200,1.0,1.1,100,0.00,,,0.00,WeatherDisplay:10.37,2013-02-22 05:10:00,
2013-02-21 23:15:00,31.1,31.1,29.85,SSE,157,0.8,2.3,100,0.00,,,0.00,WeatherDisplay:10.37,2013-02-22 05:15:00,
2013-02-21 23:20:00,31.1,31.1,29.85,WSW,238,0.0,1.1,100,0.00,,,0.00,WeatherDisplay:10.37,2013-02-22 05:20:00,
2013-02-21 23:25:00,31.1,31.1,29.85,SW,231,1.0,2.0,100,0.00,,,0.00,WeatherDisplay:10.37,2013-02-22 05:25:00,
2013-02-21 23:30:00,31.2,31.2,29.85,SE,145,1.0,1.1,100,0.00,,,0.00,WeatherDisplay:10.37,2013-02-22 05:30:00,
2013-02-21 23:35:00,31.2,31.2,29.85,SW,224,2.2,3.5,100,0.00,,,0.00,WeatherDisplay:10.37,2013-02-22 05:35:00,
2013-02-21 23:40:00,31.2,31.2,29.85,South,175,0.3,1.1,100,0.00,,,0.00,WeatherDisplay:10.37,2013-02-22 05:40:00,
2013-02-21 23:45:00,31.4,31.4,29.85,SSW,203,2.0,3.5,100,0.00,,,0.00,WeatherDisplay:10.37,2013-02-22 05:45:00,
2013-02-21 23:50:00,31.5,31.5,29.85,WSW,252,0.9,1.1,100,0.00,,,0.00,WeatherDisplay:10.37,2013-02-22 05:50:00,
2013-02-21 23:55:00,31.7,31.7,29.85,WSW,256,1.3,2.3,100,0.00,,,0.00,WeatherDisplay:10.37,2013-02-22 05:55:00,